Weather in Bilyky

Ukraine / Poltava Region     49°59′21″N   33°40′01″E
temp.,
°C
wind,
m/s
gust,
m/s
humid.,
%
clouds,
%
prec.,
mm/h
press.,
hPa
HPBL,
m
22 april, thu
thu2200:00+6ssw358158 0.0 101674
03:00+6ssw36859 0.0 1017100
06:00+5ssw37885 0.0 1018130
09:00+11sw58655 0.0 1018478
12:00+16sw674839 0.0 10192053
15:00+15sw5749100 0.1 10181489
18:00+15ssw595539 0.0 1018542
21:00+10s486918 0.1 1019142
23 april, fri
fri2300:00+9s497739 0.0 1018163
03:00+9s5127899 0.0 1018279
06:00+8s5128088 0.0 1017317
09:00+11ssw687294 0.1 1017534
12:00+14ssw8116686 0.1 10161400
15:00+7nnw71092100 5.3 1016497
18:00+7nnw5979100 2.4 1016825
21:00+6w2484100 2.4 1017111
24 april, sat
sat2400:00+5wsw49928 0.0 1016230
03:00+3w4108865 0.1 1016231
06:00+3w410865 0.0 1016289
09:00+6wnw68654 0.0 1017887
12:00+9w61044100 0.0 10172163
15:00+5wnw5107282 0.8 1018937
18:00+7wnw711534 0.3 10181920
21:00+3w37682 0.3 1021134
25 april, sun
sun2500:00+2w38710 0.0 1021148
03:00+1wsw36755 0.0 102199
06:000sw36750 0.0 102193
09:00+7sw46560 0.0 1020615
12:00+11sw684396 0.0 10192224
15:00+10wsw81158100 0.1 10181657
18:00+8w577513 0.6 1017706
21:00+7w3679100 0.8 1018347
26 april, mon
mon2600:00+5w227977 0.0 101860
03:00+2wnw33860 0.0 101859
06:00+1wnw248737 0.0 101895
09:00+6wnw35601 0.0 1019764
12:00+9w5642100 0.0 10182349
15:00+10w6840100 0.0 10172371
18:00+9w685355 0.1 10161591
21:00+5w227481 0.2 101722